This is the latest recevied weather packets stored in our database for station/object K7CTM. If no packets are shown the sender has not sent any weather packets the latest 10 day(s).
| Time | Temp. | Humidity | Pressure | Rain* | Wind** | Luminosity | Snow |
|---|---|---|---|---|---|---|---|
| 1778011200 | 7.22° C | 38% | 1026.6 hPa | 0 mm | - | 178 W/m² | - |
| 1778010897 | 7.22° C | 38% | 1026.3 hPa | 0 mm | - | 147 W/m² | - |
| 1778010595 | 7.78° C | 37% | 1026.4 hPa | 0 mm | - | 163 W/m² | - |
| 1778010292 | 7.78° C | 36% | 1026.4 hPa | 0 mm | - | 181 W/m² | - |
| 1778009992 | 7.78° C | 37% | 1026.3 hPa | 0 mm | - | 215 W/m² | - |
| 1778009690 | 7.78° C | 39% | 1026.4 hPa | 0 mm | - | 205 W/m² | - |
| 1778009387 | 8.33° C | 39% | 1026.3 hPa | 0 mm | - | 262 W/m² | - |
| 1778009086 | 7.78° C | 39% | 1026.3 hPa | 0 mm | - | 297 W/m² | - |
| 1778008783 | 8.33° C | 38% | 1026.2 hPa | 0 mm | - | 242 W/m² | - |
| 1778008481 | 8.33° C | 37% | 1026.1 hPa | 0 mm | - | 217 W/m² | - |
| 1778008178 | 8.89° C | 38% | 1026.1 hPa | 0 mm | - | 351 W/m² | - |
| 1778007873 | 9.44° C | 36% | 1026.3 hPa | 0 mm | - | 330 W/m² | - |
| 1778007568 | 8.33° C | 39% | 1026.1 hPa | 0 mm | - | 675 W/m² | - |
| 1778007266 | 8.33° C | 40% | 1026.2 hPa | 0 mm | - | 244 W/m² | - |
| 1778006962 | 8.33° C | 40% | 1026.3 hPa | 0 mm | - | 262 W/m² | - |
| 1778006659 | 8.89° C | 38% | 1026.3 hPa | 0 mm | - | 211 W/m² | - |
| 1778006356 | 10° C | 37% | 1026.3 hPa | 0 mm | - | 308 W/m² | - |
| 1778006053 | 8.89° C | 38% | 1026.3 hPa | 0 mm | - | 990 W/m² | - |
| 1778005749 | 8.89° C | 36% | 1026.5 hPa | 0 mm | - | 780 W/m² | - |
| 1778005446 | 8.33° C | 41% | 1026.4 hPa | 0 mm | - | 715 W/m² | - |
| 1778005143 | 8.33° C | 39% | 1026.6 hPa | 0 mm | - | 817 W/m² | - |
| 1778004840 | 7.78° C | 41% | 1026.6 hPa | 0 mm | - | 330 W/m² | - |
| 1778004537 | 8.89° C | 39% | 1026.5 hPa | 0 mm | - | 339 W/m² | - |
| 1778004233 | 8.33° C | 40% | 1026.6 hPa | 0 mm | - | 459 W/m² | - |
| 1778003930 | 9.44° C | 39% | 1026.8 hPa | 0 mm | - | 406 W/m² | - |
* Rain latest hour (hover to see other rain measurements)
** Current wind speed in m/s (hover to see current wind gust speed)